This is the latest recevied weather packets stored in our database for station/object OZ1IEP-5. If no packets are shown the sender has not sent any weather packets the latest 10 day(s).
| Time | Temp. | Humidity | Pressure | Rain* | Wind** | Luminosity | Snow |
|---|---|---|---|---|---|---|---|
| 1777621206 | 11.67° C | 72% | 1027.3 hPa | 0 mm | - | 100 W/m² | - |
| 1777620608 | 11.67° C | 73% | 1027.3 hPa | 0 mm | - | 125 W/m² | - |
| 1777620006 | 11.11° C | 76% | 1027.3 hPa | 0 mm | - | 262 W/m² | - |
| 1777619406 | 10.56° C | 77% | 1027.3 hPa | 0 mm | - | 76 W/m² | - |
| 1777618808 | 10.56° C | 79% | 1027.3 hPa | 0 mm | - | 54 W/m² | - |
| 1777618206 | 10° C | 81% | 1027.3 hPa | 0 mm | - | 46 W/m² | - |
| 1777617605 | 10° C | 82% | 1027.3 hPa | 0 mm | - | 42 W/m² | - |
| 1777617008 | 9.44° C | 83% | 1027.2 hPa | 0 mm | - | 49 W/m² | - |
| 1777616406 | 9.44° C | 84% | 1027.2 hPa | 0 mm | - | 33 W/m² | - |
| 1777615806 | 9.44° C | 85% | 1027.2 hPa | 0 mm | - | 33 W/m² | - |
| 1777615208 | 9.44° C | 85% | 1027.2 hPa | 0 mm | - | 32 W/m² | - |
| 1777614606 | 8.89° C | 85% | 1027.1 hPa | 0 mm | - | 30 W/m² | - |
| 1777614006 | 8.89° C | 85% | 1027.1 hPa | 0 mm | - | 35 W/m² | - |
| 1777613408 | 8.89° C | 85% | 1027.1 hPa | 0 mm | - | 30 W/m² | - |
| 1777612806 | 8.89° C | 85% | 1027.1 hPa | 0 mm | - | 28 W/m² | - |
| 1777612206 | 8.33° C | 86% | 1027.1 hPa | 0 mm | - | 33 W/m² | - |
| 1777611608 | 8.33° C | 86% | 1027.1 hPa | 0 mm | - | 40 W/m² | - |
| 1777611006 | 7.78° C | 86% | 1027.2 hPa | 0 mm | - | 28 W/m² | - |
| 1777610406 | 7.22° C | 85% | 1027.2 hPa | 0 mm | - | 35 W/m² | - |
| 1777609808 | 7.22° C | 85% | 1027.1 hPa | 0 mm | - | 54 W/m² | - |
| 1777609206 | 6.67° C | 86% | 1027 hPa | 0 mm | - | 35 W/m² | - |
| 1777608607 | 6.67° C | 86% | 1027.1 hPa | 0 mm | - | 19 W/m² | - |
| 1777608010 | 6.67° C | 87% | 1027.1 hPa | 0 mm | - | 18 W/m² | - |
| 1777607407 | 6.11° C | 87% | 1027.1 hPa | 0 mm | - | 11 W/m² | - |
| 1777606806 | 6.11° C | 86% | 1026.9 hPa | 0 mm | - | 7 W/m² | - |
* Rain latest hour (hover to see other rain measurements)
** Current wind speed in m/s (hover to see current wind gust speed)